This demonstration page uses our WeatherBlox Daily Observations layout. Learn more.

Hourly Observations for July 1, 2015

Temp ( °F °C ) Dew Point ( °F °C ) Humidity (%) Winds ( mph kmh ) Pressure ( in mb ) Visibility ( mi km ) Precip ( " mm )
12:15 am 00:15 Clear 75 23.7 65 18.6 73 73 E 6 9 29.71 1006 10 16.0934 0 0
12:35 am 00:35 Clear 74 23.1 66 19.1 78 78 ENE 7 11 29.71 1006 10 16.0934 0 0
12:55 am 00:55 Clear 73 23 68 19.8 82 82 ENE 10 17 29.74 1007 10 16.0934 0 0
1:15 am 01:15 Clear 73 22.7 68 20 85 85 ENE 10 17 29.74 1007 10 16.0934 0 0
1:35 am 01:35 Clear 73 22.7 68 20 85 85 ENE 12 19 29.74 1007 10 16.0934 0 0
1:55 am 01:55 Clear 72 22.1 67 19.2 84 84 ENE 8 13 29.74 1007 10 16.0934 0 0
2:15 am 02:15 Clear 71 21.5 66 18.8 85 85 E 10 17 29.71 1006 10 16.0934 0 0
2:35 am 02:35 Clear 70 21.2 65 18.5 85 85 ENE 9 15 29.74 1007 10 16.0934 0 0
2:55 am 02:55 Clear 69 20.7 65 18.1 85 85 E 8 13 29.74 1007 10 16.0934 0 0
3:15 am 03:15 Clear 68 19.9 64 17.8 88 88 E 5 7 29.71 1006 10 16.0934 0 0
3:35 am 03:35 Clear 67 19.5 64 17.7 89 89 ESE 8 13 29.71 1006 7 11.26538 0 0
3:55 am 03:55 Clear 67 19.2 64 17.5 90 90 ESE 6 9 29.71 1006 7 11.26538 0 0
4:15 am 04:15 Clear 65 18.6 63 17.2 92 92 ESE 7 11 29.71 1006 7 11.26538 0 0
4:35 am 04:35 Clear 65 18.6 64 17.5 93 93 E 10 17 29.71 1006 7 11.26538 0 0
4:55 am 04:55 Clear 66 19 64 17.6 92 92 ENE 5 7 29.71 1006 7 11.26538 0 0
5:15 am 05:15 Clear with Mist and Fog 65 18.5 63 17.2 92 92 NNE 7 11 29.71 1006 5 8.0467 0 0
5:35 am 05:35 Clear with Mist and Fog 64 18 63 17 94 94 NNE 5 7 29.71 1006 4 6.43736 0 0
5:55 am 05:55 Clear with Mist and Fog 64 17.8 62 16.8 94 94 NW 3 6 29.71 1006 4 6.43736 0 0
6:15 am 06:15 Sunny with Mist and Fog 64 17.6 62 16.7 95 95 Calm 29.71 1006 4 6.43736 0 0
6:35 am 06:35 Sunny with Mist and Fog 63 17.1 61 16.2 94 94 NNE 7 11 29.77 1008 2.5 4.02335 0 0
6:55 am 06:55 Sunny with Mist and Fog 64 17.5 62 16.7 95 95 N 6 9 29.74 1007 3 4.82802 0 0
7:15 am 07:15 Sunny with Mist and Fog 64 18 63 17.1 95 95 NNE 6 9 29.74 1007 4 6.43736 0 0
7:35 am 07:35 Sunny with Mist and Fog 66 18.8 64 17.5 92 92 N 7 11 29.74 1007 5 8.0467 0 0
7:55 am 07:55 Sunny with Mist and Fog 66 19.1 64 17.6 91 91 NNE 7 11 29.74 1007 5 8.0467 0 0
8:15 am 08:15 Partly Cloudy with Mist and Fog 67 19.7 64 17.8 89 89 N 12 19 29.77 1008 5 8.0467 0 0
8:35 am 08:35 Partly Cloudy 68 20.1 64 17.7 86 86 N 13 20 29.77 1008 7 11.26538 0 0
8:55 am 08:55 Partly Cloudy 69 20.7 64 17.7 83 83 N 12 19 29.77 1008 7 11.26538 0 0
9:15 am 09:15 Sunny 69 20.5 64 17.5 83 83 N 13 20 29.77 1008 7 11.26538 0 0
9:35 am 09:35 Sunny 71 21.9 64 18 79 79 N 12 19 29.74 1007 10 16.0934 0 0
9:55 am 09:55 Sunny 72 22.4 64 18 76 76 NNE 14 22 29.77 1008 10 16.0934 0 0
10:15 am 10:15 Sunny 74 23.4 65 18.3 73 73 N 12 19 29.77 1008 7 11.26538 0 0
10:35 am 10:35 Sunny 75 23.7 65 18.3 72 72 N 14 22 29.77 1008 10 16.0934 0 0
10:55 am 10:55 Sunny 76 24.6 65 18.3 68 68 N 16 26 29.77 1008 10 16.0934 0 0
11:15 am 11:15 Sunny 78 25.3 65 18.4 66 66 N 14 22 29.77 1008 10 16.0934 0 0
11:35 am 11:35 Sunny 79 26 65 18.3 63 63 NNE 15 24 29.74 1007 10 16.0934 0 0
11:55 am 11:55 Sunny 79 26.3 65 18.4 62 62 NNE 13 20 29.77 1008 10 16.0934 0 0
12:15 pm 12:15 Sunny 80 26.7 65 18.4 60 60 NE 14 22 29.77 1008 10 16.0934 0 0
12:35 pm 12:35 Sunny 81 27 65 18.5 60 60 NE 10 17 29.77 1008 10 16.0934 0 0
12:55 pm 12:55 Sunny 81 27.2 66 18.7 60 60 NE 12 19 29.77 1008 10 16.0934 0 0
1:15 pm 13:15 Sunny 82 27.7 65 18.5 57 57 NE 12 19 29.77 1008 10 16.0934 0 0
1:35 pm 13:35 Sunny 82 28 66 18.7 57 57 NNE 9 15 29.77 1008 10 16.0934 0 0
1:55 pm 13:55 Sunny 83 28.6 66 19.1 56 56 NNE 13 20 29.77 1008 10 16.0934 0 0
2:15 pm 14:15 Sunny 83 28.3 66 18.9 57 57 NNE 9 15 29.77 1008 10 16.0934 0 0
2:35 pm 14:35 Sunny 83 28.5 66 19 56 56 NE 10 17 29.77 1008 10 16.0934 0 0
2:55 pm 14:55 Sunny 83 28.4 66 18.9 56 56 NNE 9 15 29.77 1008 10 16.0934 0 0
3:15 pm 15:15 Sunny 83 28.6 66 19.1 56 56 ENE 9 15 29.77 1008 10 16.0934 0 0
3:35 pm 15:35 Sunny 84 28.7 65 18.5 54 54 NE 9 15 29.77 1008 10 16.0934 0 0
3:55 pm 15:55 Sunny 85 29.2 67 19.2 55 55 E 8 13 29.77 1008 10 16.0934 0 0
4:15 pm 16:15 Sunny 85 29.3 66 19 54 54 NNE 8 13 29.77 1008 7 11.26538 0 0
4:35 pm 16:35 Sunny 85 29.2 66 18.7 53 53 NE 7 11 29.77 1008 10 16.0934 0 0
4:55 pm 16:55 Sunny 85 29.3 66 19 54 54 NE 6 9 29.77 1008 10 16.0934 0 0
5:15 pm 17:15 Sunny 85 29.7 65 18.3 50 50 NE 7 11 29.74 1007 10 16.0934 0 0
5:35 pm 17:35 Sunny 84 29.1 65 18.3 52 52 NE 8 13 29.77 1008 10 16.0934 0 0
5:55 pm 17:55 Sunny 85 29.4 65 18.3 51 51 NNE 9 15 29.77 1008 10 16.0934 0 0
6:15 pm 18:15 Sunny 85 29.6 65 18.2 50 50 NE 6 9 29.74 1007 10 16.0934 0 0
6:35 pm 18:35 Sunny 85 29.2 64 17.8 50 50 ENE 6 9 29.77 1008 10 16.0934 0 0
6:55 pm 18:55 Sunny 89 31.6 65 18.4 45 45 ESE 5 7 29.65 1004 7 11.26538 0 0
7:15 pm 19:15 Sunny 84 29 64 17.7 51 51 ENE 6 9 29.77 1008 10 16.0934 0 0
7:35 pm 19:35 Sunny 83 28.4 66 19.1 57 57 E 7 11 29.77 1008 10 16.0934 0 0
7:55 pm 19:55 Sunny 82 27.9 67 19.6 61 61 E 7 11 29.77 1008 10 16.0934 0 0
8:15 pm 20:15 Sunny 80 26.7 67 19.4 64 64 E 7 11 29.77 1008 10 16.0934 0 0
8:35 pm 20:35 Sunny 79 26.2 67 19.6 67 67 E 7 11 29.77 1008 10 16.0934 0 0
8:55 pm 20:55 Sunny 78 25.4 67 19.7 71 71 E 6 9 29.8 1009 10 16.0934 0 0
9:15 pm 21:15 Clear 76 24.7 67 19.3 72 72 E 3 6 29.8 1009 10 16.0934 0 0
9:35 pm 21:35 Clear 75 24 67 19.6 76 76 E 6 9 29.8 1009 10 16.0934 0 0
9:55 pm 21:55 Clear 74 23.5 67 19.5 78 78 E 7 11 29.8 1009 10 16.0934 0 0
10:15 pm 22:15 Clear 74 23.6 67 19.6 78 78 E 3 6 29.83 1010 10 16.0934 0 0
10:35 pm 22:35 Clear 73 23 67 19.3 80 80 E 3 6 29.83 1010 10 16.0934 0 0
10:55 pm 22:55 Clear 72 22.2 67 19.2 83 83 Calm 29.85 1011 10 16.0934 0 0

Powered by AerisWeather